Location: Saint-Hippolyte
(43.6394°N, 4.7559°E)
Time: 14:21:56
(UTC+00:00)

FALCON 9 DEB - Pass Details

Date: 24 October 2020
Orbit: 378 x 397 km, 53.0° (Epoch: 23 November)

Event Time Altitude Azimuth Distance (km) Brightness Sun altitude
Rises 18:21:03 0° 234° (SW) 2,295 7.7 -18.4°
Reaches altitude 10° 18:23:07 10° 235° (SW) 1,438 6.5 -18.8°
Maximum altitude 18:26:20 88° 323° (NW) 400 2.8 -19.4°
Enters shadow 18:26:25 85° 33° (NNE) 401 2.8 -19.4°
